Погода в Полтеве

Россия / Тульская область     53°28′29″N   36°36′45″E
темп.,
°C
ветер,
м/с
пор.,
м/с
влажн.,
%
обл.,
%
осадки,
мм/ч
давл.,
гПа
погр.,
м
14 апреля, ср
ср1400:00+13ююв386620 0.0 1020153
03:00+10ююв399113 0.0 1020173
06:00+9ююв369497 0.0 1020115
09:00+13ю34775 0.0 1020428
12:00+17ююв355994 0.0 10181260
15:00+18юв464362 0.1 10171762
18:00+17юв2341100 0.0 101651
21:00+13вюв365193 0.0 101692
15 апреля, чт
чт1500:00+10вюв3453100 0.0 101655
03:00+10юв3456100 0.0 101645
06:00+10вюв345899 0.0 101550
09:00+13ююв3859100 0.0 1015419
12:00+15юв2454100 0.0 1015677
15:00+16всв5747100 0.0 10141725
18:00+15в375382 0.0 1013237
21:00+12юв5107498 0.3 1014292
16 апреля, пт
пт1600:00+11вюв347597 0.1 101478
03:00+9в3387100 0.2 101546
06:00+9в4108791 0.1 1016273
09:00+12вюв5974100 0.3 1017747
12:00+11юв4882100 0.9 1018572
15:00+13юв5874100 2.4 1017787
18:00+13вюв367496 1.4 1017319
21:00+11в2277100 2.3 101822
17 апреля, сб
сб1700:00+9всв599243 0.4 1019243
03:00+9всв599491 0.8 1020291
06:00+7всв5109591 0.1 1021316
09:00+9всв71086100 0.2 1021537
12:00+13всв8106843 0.0 1021981
15:00+15всв9126157 0.0 10211392
18:00+13всв9136526 0.0 10211005
21:00+11всв8156725 0.0 1022681
18 апреля, вс
вс1800:00+9всв7137023 0.0 1023522
03:00+7всв5117011 0.0 1024380
06:00+6всв5107282 0.0 1025355
09:00+8всв597380 0.0 1025480
12:00+10всв686154 0.0 1027704
15:00+14в684736 0.0 10261509
18:00+13всв585143 0.0 1026603
21:00+8всв49640 0.0 1028164